| time (UTC) | temp F | wind direction | speed MPH | gust MPH | rain 1hr in | rain 24hr in | rain mn in | humidity % | barometer mb |
| 20260905091202 | 74 | 94 | 0.0 | 0.0 | 0.00 | 0.09 | 0.00 | 90 | 1011.6 |
| 20260905090703 | 74 | 94 | 0.0 | 0.0 | 0.00 | 0.09 | 0.00 | 90 | 1011.7 |
| 20260905090203 | 74 | 94 | 0.0 | 0.0 | 0.00 | 0.09 | 0.00 | 90 | 1011.7 |
| 20260905085705 | 74 | 94 | 0.0 | 0.0 | 0.00 | 0.09 | 0.00 | 90 | 1011.6 |
| 20260905085202 | 74 | 94 | 0.0 | 0.0 | 0.00 | 0.09 | 0.00 | 90 | 1011.5 |
| 20260905084703 | 74 | 94 | 0.0 | 0.0 | 0.00 | 0.09 | 0.00 | 89 | 1011.6 |
| 20260905084203 | 74 | 94 | 0.0 | 0.0 | 0.00 | 0.09 | 0.00 | 89 | 1011.7 |
| 20260905083204 | 74 | 96 | 0.0 | 0.0 | 0.00 | 0.09 | 0.00 | 90 | 1011.7 |
| 20260905082703 | 74 | 97 | 0.0 | 0.0 | 0.00 | 0.09 | 0.00 | 90 | 1011.8 |
| 20260905082203 | 74 | 97 | 0.0 | 0.0 | 0.00 | 0.09 | 0.00 | 90 | 1011.8 |
| 20260905081703 | 74 | 97 | 0.0 | 0.0 | 0.00 | 0.09 | 0.00 | 90 | 1011.8 |
| 20260905081204 | 74 | 97 | 0.0 | 0.0 | 0.00 | 0.09 | 0.00 | 90 | 1011.8 |
| 20260905080703 | 74 | 97 | 0.0 | 0.0 | 0.00 | 0.09 | 0.00 | 90 | 1011.8 |
| 20260905080203 | 75 | 97 | 0.0 | 0.0 | 0.00 | 0.09 | 0.00 | 90 | 1011.7 |
| 20260905075704 | 75 | 97 | 0.0 | 0.0 | 0.00 | 0.09 | 0.00 | 90 | 1011.6 |
| 20260905075203 | 75 | 98 | 0.0 | 0.0 | 0.00 | 0.09 | 0.00 | 89 | 1011.6 |
| 20260905074703 | 75 | 98 | 0.0 | 0.0 | 0.00 | 0.09 | 0.00 | 89 | 1011.4 |
| 20260905073703 | 75 | 98 | 0.0 | 0.0 | 0.00 | 0.09 | 0.00 | 89 | 1011.2 |
| 20260905073202 | 75 | 98 | 0.0 | 0.0 | 0.00 | 0.09 | 0.00 | 89 | 1011.2 |
| 20260905072703 | 75 | 98 | 0.0 | 0.0 | 0.00 | 0.09 | 0.00 | 89 | 1011.1 |
| 20260905072203 | 75 | 98 | 0.0 | 0.0 | 0.00 | 0.09 | 0.00 | 89 | 1011.2 |
| 20260905071703 | 75 | 100 | 0.0 | 0.0 | 0.00 | 0.09 | 0.00 | 89 | 1011.2 |
| 20260905071203 | 75 | 100 | 0.0 | 0.0 | 0.00 | 0.09 | 0.00 | 89 | 1011.1 |
| 20260905070704 | 75 | 100 | 0.0 | 0.0 | 0.00 | 0.09 | 0.00 | 89 | 1011.1 |
| 20260905070204 | 75 | 101 | 0.0 | 0.0 | 0.00 | 0.09 | 0.00 | 88 | 1011.0 |
| 20260905065203 | 75 | 101 | 0.0 | 0.0 | 0.00 | 0.09 | 0.00 | 89 | 1011.1 |
| 20260905064204 | 75 | 89 | 0.0 | 0.0 | 0.00 | 0.09 | 0.00 | 88 | 1011.4 |
| 20260905063703 | 75 | 90 | 0.0 | 0.0 | 0.00 | 0.09 | 0.00 | 88 | 1011.5 |
| 20260905062704 | 75 | 89 | 0.0 | 0.0 | 0.00 | 0.09 | 0.00 | 88 | 1011.7 |
| 20260905061703 | 75 | 110 | 0.0 | 0.0 | 0.00 | 0.09 | 0.00 | 88 | 1011.8 |
| 20260905061204 | 75 | 110 | 0.0 | 1.0 | 0.00 | 0.09 | 0.00 | 88 | 1011.9 |
| 20260905060203 | 75 | 90 | 0.0 | 0.0 | 0.00 | 0.09 | 0.00 | 88 | 1012.0 |
| 20260905055703 | 75 | 91 | 0.0 | 0.0 | 0.00 | 0.09 | 0.00 | 88 | 1012.1 |
| 20260905055203 | 75 | 91 | 0.0 | 2.0 | 0.00 | 0.09 | 0.00 | 88 | 1012.1 |
| 20260905054704 | 75 | 95 | 0.0 | 0.0 | 0.00 | 0.09 | 0.00 | 88 | 1012.1 |
| 20260905054204 | 75 | 95 | 0.0 | 0.0 | 0.00 | 0.09 | 0.00 | 88 | 1012.2 |
| 20260905053204 | 75 | 95 | 0.0 | 0.0 | 0.00 | 0.09 | 0.00 | 88 | 1012.3 |
| 20260905052703 | 75 | 95 | 0.0 | 0.0 | 0.00 | 0.09 | 0.00 | 88 | 1012.4 |
| 20260905052204 | 75 | 95 | 0.0 | 0.0 | 0.00 | 0.09 | 0.00 | 88 | 1012.4 |
| 20260905051703 | 75 | 98 | 0.0 | 2.0 | 0.00 | 0.09 | 0.00 | 88 | 1012.5 |
| 20260905051203 | 75 | 93 | 0.0 | 0.0 | 0.00 | 0.09 | 0.00 | 88 | 1012.5 |
| 20260905050203 | 75 | 133 | 0.0 | 1.0 | 0.00 | 0.09 | 0.00 | 88 | 1012.6 |
| 20260905045703 | 75 | 17 | 0.0 | 1.0 | 0.00 | 0.09 | 0.00 | 88 | 1012.6 |
| 20260905045203 | 75 | 13 | 0.0 | 0.0 | 0.00 | 0.09 | 0.00 | 88 | 1012.7 |
| 20260905044705 | 75 | 13 | 0.0 | 0.0 | 0.00 | 0.09 | 0.00 | 88 | 1012.6 |
| 20260905044204 | 75 | 13 | 0.0 | 0.0 | 0.00 | 0.09 | 0.00 | 88 | 1012.6 |
| 20260905043704 | 75 | 13 | 0.0 | 0.0 | 0.00 | 0.09 | 0.00 | 88 | 1012.6 |
| 20260905043204 | 75 | 13 | 0.0 | 0.0 | 0.00 | 0.09 | 0.00 | 88 | 1012.6 |
| 20260905042703 | 75 | 13 | 0.0 | 0.0 | 0.00 | 0.09 | 0.00 | 87 | 1012.5 |
| 20260905042204 | 75 | 13 | 0.0 | 0.0 | 0.00 | 0.09 | 0.00 | 87 | 1012.6 |
| 20260905041704 | 75 | 13 | 0.0 | 0.0 | 0.00 | 0.09 | 0.00 | 87 | 1012.6 |
| 20260905041204 | 76 | 13 | 0.0 | 0.0 | 0.00 | 0.09 | 0.00 | 87 | 1012.6 |
| 20260905040704 | 76 | 13 | 0.0 | 0.0 | 0.00 | 0.09 | 0.00 | 87 | 1012.6 |
| 20260905040203 | 76 | 13 | 0.0 | 0.0 | 0.00 | 0.09 | 0.00 | 88 | 1012.6 |
| 20260905035703 | 76 | 13 | 0.0 | 0.0 | 0.00 | 0.09 | 0.09 | 88 | 1012.6 |
| 20260905035203 | 76 | 13 | 0.0 | 0.0 | 0.00 | 0.09 | 0.09 | 88 | 1012.6 |
| 20260905034203 | 76 | 13 | 0.0 | 0.0 | 0.00 | 0.09 | 0.09 | 88 | 1012.8 |
| 20260905033203 | 76 | 13 | 0.0 | 0.0 | 0.00 | 0.09 | 0.09 | 88 | 1012.8 |
| 20260905032703 | 76 | 13 | 0.0 | 0.0 | 0.00 | 0.09 | 0.09 | 89 | 1012.7 |
| 20260905032203 | 76 | 13 | 0.0 | 0.0 | 0.00 | 0.09 | 0.09 | 88 | 1012.7 |
| 20260905031703 | 76 | 13 | 0.0 | 0.0 | 0.00 | 0.09 | 0.09 | 89 | 1012.7 |
| 20260905030703 | 76 | 13 | 0.0 | 0.0 | 0.00 | 0.09 | 0.09 | 89 | 1012.8 |
| 20260905030203 | 76 | 13 | 0.0 | 0.0 | 0.00 | 0.09 | 0.09 | 89 | 1012.7 |
| 20260905025703 | 76 | 13 | 0.0 | 0.0 | 0.00 | 0.09 | 0.09 | 88 | 1012.6 |
| 20260905024703 | 76 | 13 | 0.0 | 0.0 | 0.00 | 0.09 | 0.09 | 88 | 1012.6 |
| 20260905024204 | 76 | 13 | 0.0 | 0.0 | 0.00 | 0.09 | 0.09 | 88 | 1012.6 |
| 20260905023703 | 76 | 13 | 0.0 | 0.0 | 0.00 | 0.09 | 0.09 | 88 | 1012.5 |
| 20260905023204 | 77 | 13 | 0.0 | 0.0 | 0.00 | 0.09 | 0.09 | 88 | 1012.6 |
| 20260905022703 | 77 | 13 | 0.0 | 0.0 | 0.00 | 0.09 | 0.09 | 88 | 1012.5 |
| 20260905022203 | 77 | 13 | 0.0 | 0.0 | 0.00 | 0.09 | 0.09 | 87 | 1012.5 |
| 20260905021703 | 77 | 13 | 0.0 | 0.0 | 0.00 | 0.09 | 0.09 | 86 | 1012.6 |
| 20260905021203 | 77 | 13 | 0.0 | 0.0 | 0.00 | 0.09 | 0.09 | 86 | 1012.6 |
| 20260905020704 | 77 | 13 | 0.0 | 0.0 | 0.00 | 0.09 | 0.09 | 86 | 1012.6 |
| 20260905020203 | 77 | 13 | 0.0 | 0.0 | 0.00 | 0.09 | 0.09 | 86 | 1012.6 |
| 20260905015703 | 77 | 13 | 0.0 | 0.0 | 0.00 | 0.09 | 0.09 | 86 | 1012.4 |
| 20260905014703 | 77 | 13 | 0.0 | 0.0 | 0.00 | 0.09 | 0.09 | 85 | 1012.2 |
| 20260905014204 | 77 | 13 | 0.0 | 0.0 | 0.00 | 0.09 | 0.09 | 85 | 1012.2 |
| 20260905013204 | 77 | 13 | 0.0 | 0.0 | 0.00 | 0.09 | 0.09 | 84 | 1012.1 |
| 20260905012704 | 77 | 13 | 0.0 | 0.0 | 0.00 | 0.09 | 0.09 | 84 | 1012.1 |
| 20260905012204 | 77 | 13 | 0.0 | 0.0 | 0.00 | 0.09 | 0.09 | 84 | 1012.1 |
| 20260905011703 | 77 | 13 | 0.0 | 0.0 | 0.00 | 0.09 | 0.09 | 84 | 1012.0 |
| 20260905011204 | 77 | 13 | 0.0 | 0.0 | 0.00 | 0.09 | 0.09 | 84 | 1012.0 |
| 20260905005703 | 77 | 13 | 0.0 | 0.0 | 0.00 | 0.09 | 0.09 | 84 | 1011.9 |
| 20260905005204 | 77 | 13 | 0.0 | 0.0 | 0.00 | 0.09 | 0.09 | 85 | 1012.0 |
| 20260905004704 | 78 | 13 | 0.0 | 0.0 | 0.00 | 0.09 | 0.09 | 85 | 1011.9 |
| 20260905004204 | 78 | 13 | 0.0 | 0.0 | 0.00 | 0.09 | 0.09 | 85 | 1011.8 |
| 20260905003204 | 78 | 13 | 0.0 | 0.0 | 0.00 | 0.09 | 0.09 | 84 | 1011.9 |
| 20260905002204 | 78 | 13 | 0.0 | 0.0 | 0.00 | 0.09 | 0.09 | 84 | 1011.9 |
| 20260905001703 | 78 | 13 | 0.0 | 0.0 | 0.00 | 0.09 | 0.09 | 84 | 1011.9 |
| 20260905001203 | 78 | 13 | 0.0 | 0.0 | 0.00 | 0.09 | 0.09 | 83 | 1011.9 |
| 20260905000704 | 78 | 13 | 0.0 | 0.0 | 0.00 | 0.09 | 0.09 | 83 | 1011.8 |
| 20260905000204 | 78 | 13 | 0.0 | 0.0 | 0.00 | 0.09 | 0.09 | 83 | 1011.7 |
| 20260904235204 | 78 | 13 | 0.0 | 0.0 | 0.00 | 0.09 | 0.09 | 82 | 1012.0 |
| 20260904234704 | 78 | 13 | 0.0 | 0.0 | 0.00 | 0.09 | 0.09 | 82 | 1011.9 |
| 20260904234203 | 78 | 13 | 0.0 | 0.0 | 0.00 | 0.09 | 0.09 | 82 | 1011.8 |
| 20260904233704 | 78 | 13 | 0.0 | 0.0 | 0.00 | 0.09 | 0.09 | 82 | 1011.9 |
| 20260904233203 | 78 | 13 | 0.0 | 0.0 | 0.00 | 0.09 | 0.09 | 82 | 1011.9 |
| 20260904232703 | 78 | 13 | 0.0 | 0.0 | 0.00 | 0.09 | 0.09 | 82 | 1011.8 |
| 20260904232203 | 78 | 13 | 0.0 | 0.0 | 0.00 | 0.09 | 0.09 | 83 | 1011.8 |
| 20260904231703 | 78 | 9 | 0.0 | 0.0 | 0.00 | 0.09 | 0.09 | 82 | 1011.7 |
| 20260904231203 | 78 | 9 | 0.0 | 0.0 | 0.00 | 0.09 | 0.09 | 83 | 1011.8 |
| 20260904230202 | 78 | 9 | 0.0 | 0.0 | 0.00 | 0.09 | 0.09 | 80 | 1011.9 |
| 20260904225705 | 78 | 9 | 0.0 | 0.0 | 0.00 | 0.09 | 0.09 | 80 | 1011.9 |
| 20260904225203 | 78 | 9 | 0.0 | 0.0 | 0.00 | 0.09 | 0.09 | 81 | 1011.8 |
| 20260904224703 | 78 | 23 | 0.0 | 0.0 | 0.01 | 0.09 | 0.09 | 80 | 1011.8 |
| 20260904224204 | 78 | 22 | 0.0 | 0.0 | 0.02 | 0.09 | 0.09 | 81 | 1011.9 |
| 20260904223703 | 78 | 29 | 0.0 | 0.0 | 0.06 | 0.09 | 0.09 | 84 | 1012.0 |
| 20260904223203 | 78 | 90 | 0.0 | 0.0 | 0.09 | 0.09 | 0.09 | 82 | 1011.9 |
| 20260904222704 | 78 | 93 | 0.0 | 0.0 | 0.09 | 0.09 | 0.09 | 82 | 1012.0 |
| 20260904222204 | 78 | 93 | 0.0 | 5.0 | 0.09 | 0.09 | 0.09 | 81 | 1012.2 |
| 20260904221703 | 78 | 53 | 0.0 | 5.0 | 0.09 | 0.09 | 0.09 | 83 | 1012.3 |
| 20260904221203 | 78 | 26 | 0.0 | 0.0 | 0.09 | 0.09 | 0.09 | 82 | 1012.4 |
| 20260904220704 | 78 | 51 | 0.0 | 1.0 | 0.09 | 0.09 | 0.09 | 82 | 1012.6 |
| 20260904220203 | 78 | 58 | 0.0 | 1.0 | 0.09 | 0.09 | 0.09 | 81 | 1012.9 |
| 20260904215703 | 79 | 59 | 0.0 | 3.0 | 0.09 | 0.09 | 0.09 | 79 | 1013.2 |
| 20260904215203 | 80 | 58 | 1.0 | 3.0 | 0.09 | 0.09 | 0.09 | 77 | 1013.0 |
| 20260904214703 | 80 | 56 | 0.0 | 0.0 | 0.08 | 0.08 | 0.08 | 77 | 1013.3 |
| 20260904214203 | 81 | 55 | 0.0 | 3.0 | 0.07 | 0.07 | 0.07 | 74 | 1013.3 |
| 20260904213703 | 82 | 56 | 1.0 | 3.0 | 0.03 | 0.03 | 0.03 | 74 | 1013.7 |
| 20260904213203 | 82 | 62 | 0.0 | 3.0 | 0.00 | 0.00 | 0.00 | 70 | 1014.1 |
| 20260904212704 | 82 | 51 | 0.0 | 0.0 | 0.00 | 0.00 | 0.00 | 68 | 1014.3 |
| 20260904212203 | 83 | 8 | 1.0 | 3.0 | 0.00 | 0.00 | 0.00 | 68 | 1013.8 |
| 20260904211703 | 83 | 10 | 2.0 | 5.0 | 0.00 | 0.00 | 0.00 | 66 | 1013.8 |
| 20260904211203 | 84 | 0 | 2.0 | 3.0 | 0.00 | 0.00 | 0.00 | 65 | 1013.6 |
| 20260904210703 | 85 | 11 | 2.0 | 6.0 | 0.00 | 0.00 | 0.00 | 62 | 1013.0 |
| 20260904210203 | 86 | 26 | 1.0 | 6.0 | 0.00 | 0.00 | 0.00 | 60 | 1012.8 |
| 20260904205702 | 88 | 0 | 2.0 | 6.0 | 0.00 | 0.00 | 0.00 | 58 | 1012.9 |
| 20260904205203 | 89 | 343 | 4.0 | 7.0 | 0.00 | 0.00 | 0.00 | 55 | 1013.0 |
| 20260904204704 | 91 | 26 | 2.0 | 6.0 | 0.00 | 0.00 | 0.00 | 53 | 1013.0 |
| 20260904204204 | 93 | 21 | 3.0 | 6.0 | 0.00 | 0.00 | 0.00 | 50 | 1013.2 |
| 20260904203703 | 95 | 354 | 5.0 | 10.0 | 0.00 | 0.00 | 0.00 | 48 | 1013.0 |
| 20260904203204 | 97 | 356 | 1.0 | 6.0 | 0.00 | 0.00 | 0.00 | 50 | 1012.8 |
| 20260904202703 | 97 | 287 | 0.0 | 2.0 | 0.00 | 0.00 | 0.00 | 50 | 1012.4 |
| 20260904202203 | 96 | 306 | 1.0 | 3.0 | 0.00 | 0.00 | 0.00 | 51 | 1012.5 |
| 20260904201703 | 96 | 224 | 3.0 | 7.0 | 0.00 | 0.00 | 0.00 | 50 | 1012.4 |
| 20260904201204 | 96 | 209 | 2.0 | 6.0 | 0.00 | 0.00 | 0.00 | 51 | 1012.4 |
| 20260904200703 | 96 | 205 | 2.0 | 6.0 | 0.00 | 0.00 | 0.00 | 52 | 1012.4 |
| 20260904200203 | 96 | 223 | 1.0 | 5.0 | 0.00 | 0.00 | 0.00 | 51 | 1012.4 |
| 20260904195703 | 96 | 326 | 1.0 | 6.0 | 0.00 | 0.00 | 0.00 | 52 | 1012.5 |
| 20260904195204 | 96 | 248 | 1.0 | 6.0 | 0.00 | 0.00 | 0.00 | 51 | 1012.4 |
| 20260904194703 | 95 | 302 | 1.0 | 3.0 | 0.00 | 0.00 | 0.00 | 53 | 1012.5 |
| 20260904193703 | 96 | 240 | 3.0 | 8.0 | 0.00 | 0.00 | 0.00 | 51 | 1012.6 |
| 20260904193204 | 95 | 234 | 2.0 | 8.0 | 0.00 | 0.00 | 0.00 | 51 | 1012.5 |
| 20260904192703 | 95 | 6 | 1.0 | 3.0 | 0.00 | 0.00 | 0.00 | 51 | 1012.5 |
| 20260904191704 | 95 | 343 | 1.0 | 5.0 | 0.00 | 0.00 | 0.00 | 52 | 1012.5 |
| 20260904191203 | 95 | 298 | 1.0 | 5.0 | 0.00 | 0.00 | 0.00 | 51 | 1012.6 |
| 20260904190704 | 95 | 222 | 1.0 | 5.0 | 0.00 | 0.00 | 0.00 | 51 | 1012.7 |
| 20260904190203 | 95 | 242 | 2.0 | 5.0 | 0.00 | 0.00 | 0.00 | 52 | 1012.8 |
| 20260904185703 | 95 | 227 | 3.0 | 8.0 | 0.00 | 0.00 | 0.00 | 51 | 1012.9 |
| 20260904185204 | 95 | 309 | 3.0 | 7.0 | 0.00 | 0.00 | 0.00 | 52 | 1012.9 |
| 20260904184703 | 95 | 244 | 2.0 | 6.0 | 0.00 | 0.00 | 0.00 | 53 | 1013.0 |
| 20260904183704 | 95 | 257 | 3.0 | 6.0 | 0.00 | 0.00 | 0.00 | 52 | 1013.1 |
| 20260904182703 | 95 | 259 | 3.0 | 8.0 | 0.00 | 0.00 | 0.00 | 53 | 1013.3 |
| 20260904182203 | 95 | 235 | 2.0 | 5.0 | 0.00 | 0.00 | 0.00 | 52 | 1013.2 |
| 20260904181704 | 95 | 244 | 0.0 | 6.0 | 0.00 | 0.00 | 0.00 | 52 | 1013.4 |
| 20260904181204 | 95 | 240 | 2.0 | 6.0 | 0.00 | 0.00 | 0.00 | 52 | 1013.4 |
| 20260904175704 | 96 | 226 | 3.0 | 5.0 | 0.00 | 0.00 | 0.00 | 53 | 1013.7 |
| 20260904175203 | 96 | 210 | 2.0 | 3.0 | 0.00 | 0.00 | 0.00 | 52 | 1013.8 |
| 20260904174703 | 96 | 312 | 1.0 | 3.0 | 0.00 | 0.00 | 0.00 | 52 | 1013.9 |
| 20260904174203 | 96 | 231 | 0.0 | 3.0 | 0.00 | 0.00 | 0.00 | 53 | 1013.9 |
| 20260904173703 | 96 | 198 | 1.0 | 5.0 | 0.00 | 0.00 | 0.00 | 53 | 1014.0 |
| 20260904173203 | 96 | 307 | 3.0 | 9.0 | 0.00 | 0.00 | 0.00 | 52 | 1014.1 |
| 20260904172704 | 96 | 294 | 2.0 | 5.0 | 0.00 | 0.00 | 0.00 | 52 | 1014.2 |
| 20260904172203 | 95 | 229 | 2.0 | 7.0 | 0.00 | 0.00 | 0.00 | 52 | 1014.2 |
| 20260904171703 | 95 | 235 | 3.0 | 7.0 | 0.00 | 0.00 | 0.00 | 52 | 1014.2 |
| 20260904170704 | 95 | 229 | 3.0 | 12.0 | 0.00 | 0.00 | 0.00 | 54 | 1014.3 |
| 20260904170203 | 95 | 251 | 2.0 | 5.0 | 0.00 | 0.00 | 0.00 | 53 | 1014.3 |
| 20260904165203 | 95 | 240 | 3.0 | 9.0 | 0.00 | 0.00 | 0.00 | 54 | 1014.3 |
| 20260904164703 | 95 | 320 | 1.0 | 9.0 | 0.00 | 0.00 | 0.00 | 54 | 1014.3 |
| 20260904164204 | 95 | 255 | 2.0 | 9.0 | 0.00 | 0.00 | 0.00 | 54 | 1014.3 |
| 20260904163704 | 95 | 257 | 3.0 | 7.0 | 0.00 | 0.00 | 0.00 | 55 | 1014.4 |
| 20260904162703 | 95 | 251 | 2.0 | 7.0 | 0.00 | 0.00 | 0.00 | 56 | 1014.5 |
| 20260904162203 | 94 | 335 | 2.0 | 5.0 | 0.00 | 0.00 | 0.00 | 56 | 1014.4 |
| 20260904161204 | 94 | 272 | 1.0 | 2.0 | 0.00 | 0.00 | 0.00 | 58 | 1014.5 |
| 20260904160704 | 94 | 14 | 2.0 | 7.0 | 0.00 | 0.00 | 0.00 | 58 | 1014.5 |
| 20260904155203 | 94 | 313 | 1.0 | 5.0 | 0.00 | 0.00 | 0.00 | 59 | 1014.6 |
| 20260904154703 | 93 | 230 | 1.0 | 5.0 | 0.00 | 0.00 | 0.00 | 59 | 1014.6 |
| 20260904154205 | 93 | 286 | 1.0 | 2.0 | 0.00 | 0.00 | 0.00 | 59 | 1014.6 |
| 20260904153704 | 93 | 227 | 1.0 | 2.0 | 0.00 | 0.00 | 0.00 | 58 | 1014.6 |
| 20260904153203 | 92 | 209 | 1.0 | 7.0 | 0.00 | 0.00 | 0.00 | 60 | 1014.6 |
| 20260904152703 | 92 | 231 | 2.0 | 6.0 | 0.00 | 0.00 | 0.00 | 59 | 1014.5 |
| 20260904151703 | 92 | 209 | 1.0 | 3.0 | 0.00 | 0.00 | 0.00 | 60 | 1014.4 |
| 20260904151203 | 91 | 237 | 1.0 | 5.0 | 0.00 | 0.00 | 0.00 | 61 | 1014.4 |
| 20260904150204 | 90 | 242 | 1.0 | 5.0 | 0.00 | 0.00 | 0.00 | 63 | 1014.5 |
| 20260904145704 | 90 | 212 | 2.0 | 5.0 | 0.00 | 0.00 | 0.00 | 63 | 1014.4 |
| 20260904144703 | 89 | 233 | 2.0 | 5.0 | 0.00 | 0.00 | 0.00 | 63 | 1014.4 |
| 20260904144204 | 89 | 211 | 3.0 | 5.0 | 0.00 | 0.00 | 0.00 | 63 | 1014.4 |
| 20260904143704 | 89 | 208 | 2.0 | 6.0 | 0.00 | 0.00 | 0.00 | 64 | 1014.4 |
| 20260904143203 | 88 | 213 | 4.0 | 7.0 | 0.00 | 0.00 | 0.00 | 64 | 1014.4 |
| 20260904142704 | 88 | 242 | 1.0 | 5.0 | 0.00 | 0.00 | 0.00 | 66 | 1014.3 |
| 20260904142203 | 88 | 279 | 0.0 | 1.0 | 0.00 | 0.00 | 0.00 | 68 | 1014.3 |
| 20260904141703 | 87 | 280 | 1.0 | 6.0 | 0.00 | 0.00 | 0.00 | 68 | 1014.3 |
| 20260904141204 | 87 | 211 | 1.0 | 7.0 | 0.00 | 0.00 | 0.00 | 70 | 1014.3 |
| 20260904140703 | 87 | 235 | 1.0 | 3.0 | 0.00 | 0.00 | 0.00 | 70 | 1014.3 |
| 20260904140204 | 86 | 227 | 0.0 | 0.0 | 0.00 | 0.00 | 0.00 | 72 | 1014.3 |
| 20260904135203 | 86 | 235 | 0.0 | 0.0 | 0.00 | 0.00 | 0.00 | 72 | 1014.3 |
| 20260904134705 | 85 | 223 | 1.0 | 5.0 | 0.00 | 0.00 | 0.00 | 72 | 1014.4 |
| 20260904133704 | 85 | 249 | 1.0 | 3.0 | 0.00 | 0.00 | 0.00 | 73 | 1014.4 |
| 20260904133204 | 85 | 250 | 1.0 | 3.0 | 0.00 | 0.00 | 0.00 | 73 | 1014.5 |
| 20260904132704 | 84 | 227 | 1.0 | 3.0 | 0.00 | 0.00 | 0.00 | 74 | 1014.5 |
| 20260904132203 | 84 | 225 | 0.0 | 3.0 | 0.00 | 0.00 | 0.00 | 74 | 1014.6 |
| 20260904131703 | 83 | 238 | 1.0 | 3.0 | 0.00 | 0.00 | 0.00 | 75 | 1014.5 |
| 20260904131205 | 83 | 224 | 0.0 | 3.0 | 0.00 | 0.00 | 0.00 | 75 | 1014.5 |
| 20260904130703 | 83 | 224 | 1.0 | 5.0 | 0.00 | 0.00 | 0.00 | 75 | 1014.4 |
| 20260904130205 | 83 | 202 | 2.0 | 3.0 | 0.00 | 0.00 | 0.00 | 76 | 1014.3 |
| 20260904125704 | 82 | 225 | 0.0 | 5.0 | 0.00 | 0.00 | 0.00 | 77 | 1014.4 |
| 20260904125203 | 82 | 209 | 0.0 | 5.0 | 0.00 | 0.00 | 0.00 | 78 | 1014.4 |
| 20260904124703 | 81 | 196 | 1.0 | 3.0 | 0.00 | 0.00 | 0.00 | 78 | 1014.5 |
| 20260904124204 | 81 | 210 | 1.0 | 3.0 | 0.00 | 0.00 | 0.00 | 79 | 1014.5 |
| 20260904123703 | 81 | 235 | 0.0 | 2.0 | 0.00 | 0.00 | 0.00 | 80 | 1014.4 |
| 20260904122703 | 80 | 114 | 0.0 | 2.0 | 0.00 | 0.00 | 0.00 | 80 | 1014.4 |
| 20260904122203 | 80 | 100 | 0.0 | 0.0 | 0.00 | 0.00 | 0.00 | 81 | 1014.4 |
| 20260904121204 | 79 | 74 | 0.0 | 0.0 | 0.00 | 0.00 | 0.00 | 82 | 1014.3 |
| 20260904120703 | 79 | 71 | 0.0 | 0.0 | 0.00 | 0.00 | 0.00 | 82 | 1014.2 |
| 20260904120204 | 79 | 60 | 0.0 | 0.0 | 0.00 | 0.00 | 0.00 | 82 | 1014.1 |
| 20260904115703 | 79 | 58 | 0.0 | 0.0 | 0.00 | 0.00 | 0.00 | 83 | 1014.0 |
| 20260904115203 | 78 | 60 | 0.0 | 0.0 | 0.00 | 0.00 | 0.00 | 83 | 1014.0 |
| 20260904113704 | 78 | 44 | 0.0 | 0.0 | 0.00 | 0.00 | 0.00 | 83 | 1013.8 |
| 20260904113204 | 78 | 46 | 0.0 | 0.0 | 0.00 | 0.00 | 0.00 | 83 | 1013.8 |
| 20260904112705 | 78 | 45 | 0.0 | 0.0 | 0.00 | 0.00 | 0.00 | 84 | 1013.7 |
| 20260904111204 | 77 | 49 | 0.0 | 0.0 | 0.00 | 0.00 | 0.00 | 85 | 1013.5 |
| 20260904110703 | 77 | 63 | 0.0 | 0.0 | 0.00 | 0.00 | 0.00 | 85 | 1013.4 |
| 20260904110203 | 77 | 63 | 0.0 | 0.0 | 0.00 | 0.00 | 0.00 | 85 | 1013.3 |
| 20260904105703 | 77 | 64 | 0.0 | 0.0 | 0.00 | 0.00 | 0.00 | 85 | 1013.2 |
| 20260904105203 | 77 | 65 | 0.0 | 0.0 | 0.00 | 0.00 | 0.00 | 85 | 1013.1 |
| 20260904104703 | 77 | 69 | 0.0 | 0.0 | 0.00 | 0.00 | 0.00 | 85 | 1013.1 |
| 20260904104203 | 77 | 68 | 0.0 | 0.0 | 0.00 | 0.00 | 0.00 | 85 | 1013.1 |
| 20260904103703 | 78 | 69 | 0.0 | 0.0 | 0.00 | 0.00 | 0.00 | 85 | 1013.1 |
| 20260904103204 | 78 | 70 | 0.0 | 0.0 | 0.00 | 0.00 | 0.00 | 84 | 1013.1 |
| 20260904102703 | 78 | 68 | 0.0 | 0.0 | 0.00 | 0.00 | 0.00 | 84 | 1013.1 |
| 20260904102203 | 78 | 68 | 0.0 | 0.0 | 0.00 | 0.00 | 0.00 | 83 | 1013.1 |
| 20260904101704 | 78 | 65 | 0.0 | 0.0 | 0.00 | 0.00 | 0.00 | 83 | 1013.2 |
| 20260904101204 | 78 | 65 | 0.0 | 0.0 | 0.00 | 0.00 | 0.00 | 83 | 1013.2 |
| 20260904100704 | 78 | 68 | 0.0 | 0.0 | 0.00 | 0.00 | 0.00 | 83 | 1013.2 |
| 20260904100203 | 78 | 65 | 0.0 | 0.0 | 0.00 | 0.00 | 0.00 | 84 | 1013.2 |
| 20260904095704 | 78 | 66 | 0.0 | 0.0 | 0.00 | 0.00 | 0.00 | 84 | 1013.2 |
| 20260904095204 | 78 | 66 | 0.0 | 0.0 | 0.00 | 0.00 | 0.00 | 83 | 1013.1 |
| 20260904094704 | 78 | 66 | 0.0 | 0.0 | 0.00 | 0.00 | 0.00 | 83 | 1013.1 |
| 20260904094204 | 78 | 67 | 0.0 | 0.0 | 0.00 | 0.00 | 0.00 | 83 | 1013.1 |
| 20260904093703 | 78 | 69 | 0.0 | 0.0 | 0.00 | 0.00 | 0.00 | 83 | 1013.1 |
| 20260904093204 | 78 | 67 | 0.0 | 0.0 | 0.00 | 0.00 | 0.00 | 83 | 1013.0 |
| 20260904092704 | 79 | 68 | 0.0 | 0.0 | 0.00 | 0.00 | 0.00 | 83 | 1013.0 |
| 20260904092203 | 79 | 68 | 0.0 | 0.0 | 0.00 | 0.00 | 0.00 | 83 | 1013.1 |
| 20260904091704 | 79 | 67 | 0.0 | 0.0 | 0.00 | 0.00 | 0.00 | 83 | 1013.1 |